Change the Weather History Date:

Monday, April 1, 2013

  Actual Average Record
Temperature  
Mean Temperature 57 °F 54 °F  
Max Temperature 66 °F 68 °F 86 °F (2011)
Min Temperature 47 °F 40 °F 29 °F (1977)
Degree Days  
Heating Degree Days 8 11  
Month to date heating degree days 8 11  
Since 1 July heating degree days 2072 2127  
Cooling Degree Days 0 0  
Month to date cooling degree days 0 0  
Year to date cooling degree days 0 1  
Growing Degree Days 6 (Base 50)    
Moisture  
Dew Point 48 °F    
Average Humidity 74    
Maximum Humidity 100    
Minimum Humidity 48    
Precipitation  
Precipitation T in 0.04 in 1.09 in (1998)
Month to date precipitation T 0.04  
Year to date precipitation 3.97 9.55  
Since 1 July precipitation 7.61 14.26  
Snow  
Snow 0.00 in - - ()
Year to date snowfall 0.0  
Since 1 July snowfall 0.0  
Snow Depth 0.00 in    
Sea Level Pressure  
Sea Level Pressure 30.10 in    
Wind  
Wind Speed 8 mph (WNW)    
Max Wind Speed 18 mph    
Max Gust Speed 25 mph    
Visibility 9 miles    
Events Rain    
T = Trace of Precipitation, MM = Missing Value Source: NWS Daily Summary

Daily Weather History Graph

Daily Weather History Graph

Search for Another Location

Airport or City:

Trip Planner

Search our weather history database for the weather conditions in past years. The results will help you decide how hot, cold, wet, or windy it might be!

Date:

Astronomy

Apr. 01, 2013 Rise Set
Actual Time 6:35 AM PDT 7:08 PM PDT
Civil Twilight 6:10 AM PDT 7:33 PM PDT
Nautical Twilight 5:40 AM PDT 8:02 PM PDT
Astronomical Twilight 5:11 AM PDT 8:32 PM PDT
Moon 12:07 AM PDT (4/1) 10:40 AM PDT (4/1)
Length of Visible Light 13h 22m
Length of Day
12h 33m
Waning Gibbous, 66% of the Moon is Illuminated
Apr 1
Waning Gibbous
Apr 2
Last Quarter
Apr 10
New
Apr 18
First Quarter
Apr 25
Full

Hourly Weather History & Observations

Time (PDT) Temp. Dew Point Humidity Pressure Visibility Wind Dir Wind Speed Gust Speed Precip Events Conditions
12:53 AM 48.0 °F 46.9 °F 96% 30.09 in 10.0 mi Calm Calm - N/A   Mostly Cloudy
1:53 AM 48.9 °F 48.0 °F 97% 30.09 in 8.0 mi Calm Calm - 0.00 in   Overcast
2:08 AM 48.2 °F 46.4 °F 93% 30.11 in 9.0 mi Calm Calm - N/A   Overcast
2:18 AM 46.4 °F 46.4 °F 100% 30.11 in 8.0 mi Calm Calm - N/A   Mostly Cloudy
2:20 AM 46.4 °F 46.4 °F 100% 30.11 in 8.0 mi Calm Calm - N/A   Mostly Cloudy
2:43 AM 48.2 °F 46.4 °F 93% 30.11 in 10.0 mi SSE 3.5 mph - N/A   Overcast
2:53 AM 46.9 °F 46.0 °F 97% 30.09 in 10.0 mi SSE 3.5 mph - N/A   Overcast
3:46 AM 51.8 °F 48.2 °F 88% 30.10 in 10.0 mi Calm Calm - N/A   Overcast
3:53 AM 50.0 °F 48.0 °F 93% 30.08 in 10.0 mi Calm Calm - N/A   Overcast
4:24 AM 48.2 °F 46.4 °F 93% 30.10 in 10.0 mi Calm Calm - N/A   Mostly Cloudy
4:32 AM 48.2 °F 46.4 °F 93% 30.10 in 10.0 mi Calm Calm - N/A   Overcast
4:53 AM 51.1 °F 48.9 °F 92% 30.09 in 10.0 mi West 6.9 mph - 0.00 in   Overcast
5:04 AM 51.8 °F 48.2 °F 88% 30.10 in 10.0 mi West 5.8 mph - N/A   Overcast
5:15 AM 51.8 °F 50.0 °F 94% 30.11 in 10.0 mi WNW 5.8 mph - N/A   Overcast
5:49 AM 51.8 °F 48.2 °F 88% 30.11 in 6.0 mi WNW 6.9 mph - 0.00 in Rain Light Rain
5:53 AM 51.1 °F 50.0 °F 96% 30.10 in 8.0 mi WNW 5.8 mph - 0.00 in Rain Light Rain
6:03 AM 50.0 °F 48.2 °F 94% 30.12 in 9.0 mi NW 4.6 mph - 0.00 in   Mostly Cloudy
6:11 AM 50.0 °F 48.2 °F 94% 30.12 in 8.0 mi WNW 5.8 mph - 0.00 in   Mostly Cloudy
6:44 AM 50.0 °F 48.2 °F 94% 30.12 in 7.0 mi WNW 5.8 mph - 0.00 in   Overcast
6:53 AM 50.0 °F 48.9 °F 96% 30.11 in 7.0 mi WNW 5.8 mph - 0.00 in   Mostly Cloudy
7:09 AM 50.0 °F 48.2 °F 94% 30.12 in 8.0 mi WNW 4.6 mph - N/A   Overcast
7:16 AM 50.0 °F 48.2 °F 94% 30.13 in 8.0 mi WNW 4.6 mph - N/A   Overcast
7:53 AM 51.1 °F 48.9 °F 92% 30.14 in 10.0 mi WNW 6.9 mph - N/A   Overcast
8:53 AM 53.1 °F 48.9 °F 86% 30.15 in 10.0 mi NW 4.6 mph - N/A   Overcast
9:44 AM 55.4 °F 46.4 °F 72% 30.17 in 10.0 mi WNW 4.6 mph - N/A   Mostly Cloudy
9:53 AM 55.9 °F 46.9 °F 72% 30.16 in 10.0 mi NW 6.9 mph - N/A   Mostly Cloudy
10:53 AM 57.9 °F 44.1 °F 60% 30.15 in 10.0 mi Calm Calm - N/A   Scattered Clouds
11:53 AM 62.1 °F 44.1 °F 52% 30.14 in 10.0 mi WNW 10.4 mph - N/A   Clear
12:53 PM 64.0 °F 45.0 °F 50% 30.11 in 10.0 mi WNW 17.3 mph 21.9 mph N/A   Scattered Clouds
1:53 PM 66.0 °F 48.0 °F 52% 30.09 in 10.0 mi West 13.8 mph 21.9 mph N/A   Clear
2:53 PM 64.0 °F 46.0 °F 52% 30.08 in 10.0 mi West 15.0 mph 23.0 mph N/A   Partly Cloudy
3:53 PM 62.1 °F 46.9 °F 58% 30.07 in 10.0 mi West 15.0 mph 21.9 mph N/A   Clear
4:53 PM 59.0 °F 46.0 °F 62% 30.07 in 10.0 mi West 15.0 mph - N/A   Scattered Clouds
5:02 PM 60.8 °F 46.4 °F 59% 30.08 in 10.0 mi West 13.8 mph - N/A   Mostly Cloudy
5:53 PM 57.0 °F 46.9 °F 69% 30.07 in 10.0 mi West 15.0 mph - N/A   Overcast
6:10 PM 55.4 °F 48.2 °F 77% 30.09 in 10.0 mi West 12.7 mph - N/A   Overcast
6:53 PM 55.0 °F 48.0 °F 77% 30.09 in 10.0 mi West 10.4 mph - N/A   Overcast
7:53 PM 54.0 °F 48.9 °F 83% 30.08 in 10.0 mi West 9.2 mph - N/A   Overcast
8:44 PM 53.6 °F 48.2 °F 82% 30.09 in 10.0 mi NW 12.7 mph - N/A   Overcast
8:51 PM 53.6 °F 48.2 °F 82% 30.09 in 10.0 mi WNW 11.5 mph - N/A   Overcast
8:53 PM 54.0 °F 48.9 °F 83% 30.08 in 10.0 mi WNW 11.5 mph - N/A   Overcast
9:53 PM 53.1 °F 48.9 °F 86% 30.07 in 10.0 mi WNW 4.6 mph - N/A   Overcast
10:36 PM 53.6 °F 48.2 °F 82% 30.09 in 10.0 mi Calm Calm - N/A   Overcast
10:53 PM 53.1 °F 48.9 °F 86% 30.07 in 10.0 mi West 3.5 mph - N/A   Overcast
11:53 PM 53.1 °F 48.0 °F 83% 30.08 in 10.0 mi Calm Calm - N/A   Overcast